Location: Newark
(45.6000°N, 12.8833°E)
Time: 23:49:38
(UTC+00:00)

Vanguard 3 - Pass Details

Date: 01 December 2019
Orbit: 508 x 3263 km, 33.3° (Epoch: 12 December)

Event Time Altitude Azimuth Distance (km) Brightness Sun altitude
Rises 17:23:05 0° 275° (W) 7,231 13.4 -19.8°
Reaches altitude 10° 17:32:48 10° 252° (WSW) 6,086 12.7 -21.4°
Maximum altitude 17:38:50 12° 233° (SW) 5,646 12.2 -22.5°
Drops below altitude 10° 17:44:26 10° 214° (SW) 5,529 11.9 -23.4°
Sets 17:52:13 0° 188° (S) 5,923 11.7 -24.8°
